User: anonymous
Location: Bowman Observatory
(41.0326°N, 73.6210°W)
Time: 01:45:51
(UTC-04:00)
Language:

Cosmos 2297 - Orbit

View from above orbital plane
View from above orbital plane
View from above satellite
View from above satellite

Ground track
Ground track

The orbit data is extracted from the following two-line orbital elements,

1 23404U 94077A   14211.82600833 -.00000015  00000-0  17136-4 0  8256
2 23404 071.0184 335.8029 0018151 304.9185 212.3269 14.13402696 15379
Epoch (UTC): 30 July 2014 19:49:27
Eccentricity: 0.0018151
inclination: 71.0184°
perigee height: 834 km
apogee height: 861 km
right ascension of ascending node: 335.8029°
argument of perigee: 304.9185°
revolutions per day: 14.13402696
mean anomaly at epoch: 212.3269°
orbit number at epoch: 1537

The dashed part of the orbit path shows where the satellite is in the earth's shadow,  

DLR